Wetbulb
25.44 26.25 25.63 26.42 28.17 28.29 29.51 28.49 29.48 36.08 37.53 38.23 38.70 39.40 39.99 40.32 40.71 41.03 41.48 41.87 42.51 43.54 44.25 44.98 45.60 45.76 45.58
23.87 24.68 25.38 26.49 26.67 26.01 29.10 31.16 29.95 34.08 36.61 37.64 38.20 38.38 38.67 39.02 39.42 39.64 40.07 40.66 41.48 41.90 42.16 42.40 43.02 43.67 44.47
24.38 25.05 25.65 26.06 24.98 26.17 26.64 27.52 29.96 33.64 35.19 35.77 36.41 37.04 37.75 38.35 38.77 39.02 38.93 39.10 39.27 39.41 39.74 40.18 40.85 41.82 42.73
25.31 24.14 22.95 25.09 24.74 24.95 25.03 26.18 26.31 29.16 31.68 33.40 35.08 35.87 36.69 37.04 37.03 36.79 36.84 37.23 37.88 38.44 38.75 38.90 39.18 40.09 41.39
22.95 21.39 21.55 23.84 24.57 25.83 24.45 25.31 25.73 26.48 26.53 26.83 26.47 27.40 28.59 32.84 33.28 34.41 34.71 35.82 36.92 37.83 38.58 39.12 39.09 39.56 40.38
17.59 22.30 24.07 23.39 24.07 24.89 24.16 23.06 22.32 25.65 24.32 26.23 27.23 26.36 27.33 27.65 32.45 34.26 35.36 36.31 36.86 37.33 37.62 37.93 38.12 38.44 39.34
25.87 24.40 24.42 25.79 25.77 24.11 24.40 24.36 23.83 26.48 25.77 23.30 25.84 24.39 26.60 27.72 32.55 33.75 34.79 35.58 36.08 36.51 36.71 37.02 37.44 37.92 38.41
25.98 26.81 26.65 27.51 27.90 28.84 28.58 26.33 25.38 25.78 25.50 20.71 24.24 23.39 25.58 26.24 31.74 33.19 34.00 34.70 35.30 35.85 36.35 36.54 36.83 37.16 37.51
33.22 33.45 33.58 33.69 32.47 27.24 22.85 22.12 20.72 21.77 24.60 22.03 21.64 22.07 23.88 24.48 26.29 31.73 33.08 33.88 34.59 35.04 35.31 35.55 35.79 35.97 34.97
24.07 24.61 26.57 24.93 29.98 25.57 22.41 19.36 19.99 19.41 22.02 16.80 20.60 22.51 19.65 21.86 23.30 23.55 24.75 30.17 32.07 33.15 33.94 34.54 34.84 31.92 31.14
21.74 22.09 22.92 23.12 23.98 24.37 24.41 22.06 21.21 20.73 24.53 24.79 22.49 22.04 21.64 20.13 21.30 23.06 23.85 24.62 24.88 26.44 30.54 31.82 32.54 32.37 29.34
20.94 20.72 21.18 21.72 22.31 22.88 23.58 23.38 24.12 23.42 24.31 24.58 21.24 19.42 19.29 18.22 17.75 21.86 23.08 24.03 24.32 24.12 24.75 28.26 31.25 32.91 34.03
19.75 20.47 20.97 21.29 21.62 21.29 22.03 22.16 21.29 21.99 23.96 23.35 22.31 21.65 20.93 18.90 18.49 19.79 21.19 22.75 24.12 23.62 24.05 24.16 24.25 25.19 24.17
19.66 20.63 21.19 20.03 19.78 20.49 19.11 19.65 19.59 19.27 22.22 22.80 21.84 21.10 19.67 20.30 20.58 19.52 21.24 20.34 23.24 24.47 24.91 25.61 26.41 27.17 27.18
19.31 19.44 19.17 19.45 19.07 19.57 18.40 18.41 17.48 17.85 18.43 20.69 22.25 22.05 22.05 21.75 19.79 20.63 21.19 21.88 23.40 23.72 24.04 24.13 26.11 27.15 27.32
18.37 17.80 17.57 17.31 17.68 19.42 20.64 18.61 16.60 17.45 17.95 19.59 20.47 20.63 21.62 23.92 26.79 21.26 22.41 22.89 24.46 25.81 26.70 25.34 26.14 29.54 30.54
16.22 16.09 16.75 18.11 20.01 17.64 18.27 18.26 17.74 18.31 19.41 21.07 21.00 21.14 19.28 17.75 24.48 30.67 26.02 27.50 28.15 27.63 27.87 27.42 26.46 27.96 29.11
MSLP
1022.17 1021.70 1021.56 1021.31 1021.11 1020.83 1020.61 1020.44 1020.06 1019.40 1018.68 1018.02 1017.49 1016.93 1016.37 1015.94 1015.60 1015.26 1014.85 1014.56 1014.20 1013.81 1013.47 1012.97 1012.82 1012.43 1012.30
1021.92 1021.80 1021.50 1021.05 1020.64 1020.44 1019.98 1019.74 1019.43 1018.85 1018.10 1017.33 1016.74 1016.25 1015.87 1015.47 1015.05 1014.58 1014.17 1013.73 1013.25 1013.04 1012.80 1012.50 1012.18 1011.77 1011.33
1021.53 1021.34 1021.02 1020.59 1020.18 1019.90 1019.53 1019.19 1018.82 1018.09 1017.24 1016.69 1016.24 1015.79 1015.35 1014.81 1014.25 1013.71 1013.31 1012.95 1012.59 1012.27 1012.00 1011.73 1011.44 1011.05 1010.68
1021.13 1020.85 1020.75 1020.09 1019.85 1019.61 1018.87 1018.56 1018.07 1017.47 1016.53 1016.09 1015.68 1015.20 1014.72 1014.16 1013.66 1013.16 1012.75 1012.36 1011.91 1011.49 1011.13 1010.81 1010.44 1010.08 1009.71
1020.82 1020.34 1020.23 1019.91 1019.56 1018.94 1018.41 1017.81 1017.40 1016.96 1015.84 1015.55 1015.40 1014.93 1014.24 1013.42 1012.82 1012.23 1011.86 1011.37 1010.86 1010.40 1009.93 1009.53 1009.33 1009.01 1008.61
1020.28 1019.95 1019.65 1019.29 1018.83 1018.46 1017.94 1017.52 1016.49 1016.03 1015.53 1014.58 1014.55 1013.80 1013.11 1012.64 1011.87 1011.20 1010.61 1010.08 1009.64 1009.24 1008.80 1008.47 1008.23 1007.94 1007.61
1019.23 1019.27 1018.78 1018.46 1018.00 1017.53 1017.17 1016.77 1016.32 1015.54 1015.13 1013.60 1013.77 1012.85 1012.13 1011.58 1010.82 1010.27 1009.62 1009.07 1008.59 1008.13 1007.66 1007.25 1006.92 1006.57 1006.29
1018.50 1018.14 1017.82 1017.39 1017.04 1016.57 1016.18 1015.86 1015.36 1014.80 1014.51 1013.29 1012.73 1011.89 1011.29 1010.61 1009.87 1009.18 1008.63 1008.10 1007.60 1007.10 1006.60 1006.11 1005.71 1005.35 1005.02
1017.54 1017.20 1016.88 1016.50 1016.23 1015.94 1015.84 1015.61 1014.65 1014.08 1013.63 1013.24 1012.03 1011.23 1010.61 1009.45 1008.81 1008.16 1007.72 1007.20 1006.60 1006.05 1005.62 1005.19 1004.76 1004.30 1003.87
1017.72 1017.41 1016.93 1016.66 1016.11 1016.03 1015.79 1015.66 1014.99 1013.66 1012.60 1012.72 1011.72 1011.62 1009.56 1008.33 1007.92 1007.69 1007.26 1006.58 1005.86 1005.16 1004.61 1004.11 1003.74 1003.35 1002.96
1017.43 1017.03 1016.64 1016.24 1015.92 1015.58 1015.32 1015.18 1014.44 1013.49 1012.16 1012.24 1011.29 1011.14 1010.71 1008.75 1007.53 1007.04 1006.50 1005.47 1004.87 1004.01 1003.51 1003.08 1002.73 1002.43 1001.98
1017.36 1016.92 1016.51 1015.97 1015.51 1015.13 1014.54 1014.04 1013.52 1012.78 1011.67 1011.85 1011.02 1010.55 1009.71 1008.51 1007.20 1005.75 1005.05 1004.46 1003.91 1002.89 1002.49 1001.94 1001.55 1001.11 1000.68
1017.15 1016.62 1016.25 1015.70 1015.09 1014.42 1013.63 1013.06 1012.40 1011.68 1010.95 1010.42 1010.15 1009.40 1008.91 1007.80 1006.48 1005.24 1004.07 1002.87 1002.56 1001.87 1001.28 1000.90 1000.37 1000.16 999.91
1016.95 1016.42 1015.87 1015.25 1014.65 1014.04 1013.39 1012.50 1011.68 1010.18 1009.60 1009.13 1008.73 1008.39 1007.49 1006.63 1005.84 1004.11 1003.02 1002.53 1000.98 1000.45 999.99 999.49 999.06 998.73 998.30
1016.85 1016.23 1015.54 1014.88 1014.14 1013.42 1012.84 1012.02 1011.39 1009.98 1008.60 1007.76 1007.31 1006.84 1006.12 1005.45 1004.47 1002.62 1001.71 1000.83 999.88 999.28 999.01 998.00 997.27 996.89 996.40
1016.55 1015.99 1015.28 1014.49 1013.58 1012.65 1012.02 1011.49 1010.57 1009.41 1008.35 1007.07 1006.21 1005.31 1004.12 1002.99 1002.66 1001.42 1000.20 999.60 998.48 997.83 997.34 996.47 995.29 994.82 994.28
1016.14 1015.46 1014.79 1013.93 1013.05 1012.17 1011.34 1010.59 1009.54 1008.57 1007.33 1006.36 1005.44 1004.67 1003.35 1001.75 1000.22 999.92 999.12 997.99 997.11 996.33 995.64 995.03 994.08 993.12 992.85
Wind_Speed
4 3 3 5 6 5 7 7 8 20 23 23 24 23 24 24 25 25 26 26 27 28 27 28 28 29 29
3 3 5 5 6 6 7 8 8 17 24 24 24 24 24 25 25 25 25 26 26 27 27 27 28 30 30
4 3 4 4 4 5 6 8 7 19 23 24 23 23 24 24 23 25 26 27 27 27 27 27 28 29 30
5 4 3 5 3 7 8 5 8 9 17 20 21 22 22 25 26 27 26 26 27 27 28 28 29 29 30
4 2 3 3 7 7 8 9 9 8 11 7 5 7 10 19 22 27 25 25 25 26 28 28 28 29 31
3 5 6 5 4 8 9 8 9 4 4 10 7 10 10 9 22 26 27 28 28 29 29 29 29 29 30
7 6 9 8 9 10 10 9 10 8 11 14 8 12 10 11 24 27 28 29 29 28 27 27 27 28 28
7 10 10 10 9 10 10 10 9 9 7 11 7 11 10 10 25 28 28 27 26 26 26 26 27 27 28
20 20 20 22 20 10 8 8 11 9 7 9 6 7 9 13 12 25 23 24 25 27 28 29 29 30 23
5 10 12 11 18 8 5 7 9 8 3 2 6 7 7 4 5 5 8 22 27 28 28 28 28 14 12
6 7 7 7 6 6 7 6 9 11 13 10 6 7 8 10 5 6 9 13 12 16 24 26 26 23 11
6 7 7 8 7 8 10 11 10 15 15 12 8 8 11 13 13 9 10 10 10 13 11 17 24 26 26
7 7 6 8 10 10 10 11 11 12 12 13 11 12 10 12 13 14 16 8 10 12 11 10 11 9 10
7 8 8 7 9 7 8 9 10 11 10 11 12 11 12 12 12 15 14 11 9 11 10 11 10 10 12
7 8 9 8 9 8 7 9 9 11 13 10 9 11 12 15 13 14 14 14 12 12 11 13 12 12 13
7 8 9 9 9 9 8 8 10 11 12 11 11 11 10 11 22 15 14 13 13 14 13 13 13 10 12
7 8 8 9 13 10 9 9 10 10 12 11 10 9 12 14 11 19 12 13 12 13 12 12 14 14 12
Wind_Direction
237 259 273 280 283 276 278 272 274 292 298 296 295 292 290 292 291 290 288 286 286 282 281 281 283 279 283
241 254 239 259 257 273 282 283 282 286 295 294 295 297 295 291 290 287 284 285 284 285 285 283 283 282 282
271 241 251 257 273 265 263 265 265 285 292 294 293 293 291 288 289 292 292 290 287 284 282 280 278 278 277
264 263 246 262 252 286 289 282 290 286 284 287 287 289 291 292 291 288 286 282 280 278 277 276 273 273 274
269 254 265 276 284 297 291 297 290 274 278 276 257 265 270 283 282 284 285 282 280 277 274 275 276 274 273
241 268 270 259 267 287 291 296 303 234 278 288 287 280 277 274 277 284 283 283 284 282 279 279 277 275 274
291 276 284 286 281 284 278 271 271 276 291 290 289 278 279 274 281 284 284 285 286 285 283 279 274 273 273
259 277 267 268 255 263 280 287 280 280 275 282 285 278 283 275 279 283 285 284 285 283 282 280 277 277 276
298 302 302 302 302 304 293 296 294 290 281 281 270 279 283 279 274 275 277 280 283 283 284 283 281 278 277
301 300 295 287 298 293 283 276 285 293 256 220 293 310 296 227 251 262 271 276 280 282 280 279 279 276 271
304 299 297 292 289 279 269 253 273 264 274 289 286 280 265 293 257 262 267 276 272 274 278 279 280 276 269
300 295 295 297 295 288 281 270 258 263 280 275 271 269 273 280 284 282 274 273 269 271 270 269 274 272 268
296 294 293 289 294 290 283 277 271 268 269 268 258 270 265 269 276 281 286 278 274 268 265 257 254 251 262
299 297 296 295 288 286 288 298 295 294 276 261 255 253 264 260 268 274 273 273 276 271 268 265 259 248 248
299 299 294 294 290 293 284 288 280 295 299 293 271 251 250 260 270 268 271 274 269 269 269 270 263 253 248
292 285 289 293 296 294 289 289 287 289 288 290 296 298 286 256 231 263 272 265 271 270 264 263 268 257 252
283 286 286 288 303 297 294 289 289 288 285 289 287 282 295 293 290 266 266 273 279 278 275 269 273 272 265